Starlink 33707

operational
NORAD ID: 63401 Int'l Des: 2025-065 Owner: SPXS Country: US Constellation: starlink
LEOCIRCULAR

About Starlink 33707

Description loading...

Live Position

Loading 3D Globe...

Upcoming Passes

Altitude History

Altitude vs Time

uPlot chart will show altitude changes over time

Two-Line Element Set

1 63401U 25065C 25301.55790985 .00038952 00000-0 14176-2 0 9999
2 63401 42.9952 133.1624 0000246 134.3121 225.7751 15.27579060 32639
Epoch: Oct 28, 2025 • Age: 20 hours

Current Status

Altitude 486.7 km
Velocity 7.62 km/s
Sub-Earth Point -18.41°S, 154.49°E
Launch Date Mar 31, 2025
Age 0.5 years
Type internet

Technical Details

Classification Payload
Mass 575.00 kg
Dry Mass 530.00 kg
Total Mass 575.00 kg
Length 0.30 m
Diameter 4.10 m
Span 29.00 m
Shape Box + pan
Manufacturer SPXS
Bus Type Starlink V2MO
Phase Status In Orbit
Owner/State SPXS/US

Large Constellations

Loading constellations...